CubeBel-2 (EU11S)
1 57175U 23091K   26118.82427726  .00011747  00000-0  43218-3 0  9997
2 57175  97.5090 181.6371 0008386 290.9572  69.0770 15.28000231156769
RS-38S
1 57189U 23091Z   26118.80647197  .00016252  00000-0  48862-3 0  9992
2 57189  97.5123 187.3571 0006363 236.8746 123.1887 15.34459543157113
SONATE-2
1 59112U 24043Q   26118.64819056  .00036533  00000-0  54042-3 0  9996
2 59112  97.5474 266.1633 0006621  30.1363 330.0270 15.55197969120188
GRBBeta
1 60237U 24128C   26118.83529197  .00004308  00000-0  29972-3 0  9994
2 60237  61.9919  29.3627 0046840 124.2911 236.2630 15.06234492 98832
Curium One
1 60242U 24128H   26118.83850185  .00008119  00000-0  47468-3 0  9998
2 60242  61.9808  20.4512 0046477 120.6485 239.9205 15.11710493 98993
ROBUSTA-3A
1 60243U 24128J   26118.71009457  .00008688  00000-0  51788-3 0  9995
2 60243  61.9886  23.1073 0047620 118.0575 242.5348 15.10895420 98940
CatSat
1 60246U 24125J   26118.10282435  .00055486  00000-0  86143-3 0  9998
2 60246  97.2143 330.1466 0023519  12.3250 347.8574 15.53475877 99606
HYPERVIEW-1G (RS66S)
1 61772U 24199AP  26118.73404142  .00080216  00000-0  79455-3 0  9991
2 61772  97.2983 356.3569 0009255 100.7606 259.4697 15.65523998126915
AO-123
1 61781U 24199AY  26118.89183613  .00008118  00000-0  24096-3 0  9997
2 61781  97.3076 348.0158 0015615 122.3284 237.9474 15.34940431126364
JINJUSat 1B
1 63210U 25052A   26118.65881098  .00016602  00000-0  54001-3 0  9997
2 63210  97.4064  15.3935 0001260 245.0324 115.0786 15.31956639 62519
NUSHSAT 1
1 63211U 25052B   26118.71054580  .00020418  00000-0  62121-3 0  9995
2 63211  97.4042  15.8555 0000855 250.2042 109.9108 15.34048988 62559
TEVEL2-4
1 63213U 25052D   26118.27070273  .00017880  00000-0  56518-3 0  9997
2 63213  97.3966  14.6332 0000577 341.4810  18.6411 15.32859435 62460
TEVEL2-5
1 63214U 25052E   26118.61244015  .00019046  00000-0  60429-3 0  9995
2 63214  97.3964  14.9362 0000634 333.5226  26.5983 15.32725762 62515
TEVEL2-6
1 63215U 25052F   26118.68885348  .00017665  00000-0  56141-3 0  9994
2 63215  97.3964  14.9973 0000710 333.6532  26.4674 15.32688828 62528
TEVEL2-1
1 63217U 25052H   26118.70171410  .00017761  00000-0  57283-3 0  9992
2 63217  97.3939  14.6906 0001323 354.5560   5.5667 15.32214619 62511
TEVEL2-3
1 63218U 25052J   26118.69796830  .00017706  00000-0  57025-3 0  9993
2 63218  97.3942  14.7032 0001350 355.0425   5.0803 15.32260244 62515
TEVEL2-2
1 63219U 25052K   26118.63693955  .00017895  00000-0  57707-3 0  9998
2 63219  97.3940  14.6275 0001368 355.7070   4.4159 15.32217578 62502
TEVEL2-9
1 63237U 25052AD  26118.68343600  .00016056  00000-0  54834-3 0  9998
2 63237  97.4003  14.1506 0004995 336.3952  23.7059 15.30377384 62455
TEVEL2-7
1 63238U 25052AE  26118.65008935  .00016498  00000-0  56783-3 0  9990
2 63238  97.4005  14.0530 0005127 336.0294  24.0708 15.30119310 62445
TEVEL2-8
1 63239U 25052AF  26118.46158889  .00016454  00000-0  56678-3 0  9999
2 63239  97.4004  13.8437 0005139 338.3512  21.7511 15.30093335 62410
HYDRA-W
1 63490U 25052BL  26113.93882235  .05662091  24406-5  29537-2 0  9997
2 63490  97.3690  18.2798 0008685 203.5899 156.4993 16.20186780 62336
HADES-ICM (SO-125)
1 63492U 25052BN  26118.46263686  .00421192  00000-0  22989-2 0  9998
2 63492  97.3838  21.4147 0003866 145.4406 214.7113 15.78753249 62930
SPIRONE
1 66657U 25274H   26118.74120742  .00002721  00000-0  26464-3 0  9992
2 66657  97.7469  48.7510 0012287 171.3222 188.8213 14.93337228 22846
K-HERO
1 66660U 25274L   26118.75981289  .00002463  00000-0  23741-3 0  9996
2 66660  97.7480  48.8937 0013926 176.6764 183.4550 14.93771918 22851
SNUGLITE-III DURI
1 66661U 25274M   26118.74925485  .00002302  00000-0  22188-3 0  9998
2 66661  97.7477  48.9019 0014559 178.1326 181.9950 14.93832414 22850
SilverSat
1 66909U 98067XV  26113.44966717  .07226154  12288-4  11979-2 0  9998
2 66909  51.6027 190.0749 0007952 333.4666  26.5949 16.32457272 22308
SAKHACUBE-CHOLBON
1 67290U 25313AU  26118.73252065  .00009934  00000-0  41281-3 0  9990
2 67290  97.3953 194.4172 0010187 161.8970 198.2632 15.23960001 18444
RS95S (QMR-KWT-2)
1 67291U 25313AV  26118.75963840  .00014595  00000-0  58689-3 0  9992
2 67291  97.3951 194.5313 0010011 161.4443 198.7162 15.24968254 18451
Ten-Koh2
1 68261U 25241B   26118.49303690  .00006939  00000-0  30247-3 0  9995
2 68261  51.6483 196.0493 0005701 343.7338  16.3455 15.23255257  7332
JACK-002
1 68417U 26067B   26118.82352596  .00007606  00000-0  36908-3 0  9993
2 68417  97.4531  78.0600 0004124  90.6500 269.5207 15.18762183  4455
DISCO 2
1 68431U 26067R   26118.83232587  .00007803  00000-0  38328-3 0  9994
2 68431  97.4567  78.0629 0003428 130.7144 229.4388 15.18330017  4459
HADES-SA (SpinnyONE)
1 68446U 26067AG  26118.85556686  .00017794  00000-0  89199-3 0  9993
2 68446  97.4375  77.9651 0004952 234.1858 125.8916 15.17397495  4446
PARUS-6U1
1 68456U 26067AS  26118.85717072  .00005910  00000-0  30247-3 0  9999
2 68456  97.4517  78.0114 0004207 220.1186 139.9737 15.16990580  4454
SAL-E
1 68458U 26067AU  26118.85727870  .00008139  00000-0  41455-3 0  9997
2 68458  97.4443  77.9848 0004140 232.6498 127.4359 15.17042542  4455
IO-86
1 40931U          25360.30710720  .00000000  00000-0  12800-3 0    00
2 40931   6.0006 332.5373 0012733 338.8432   8.1437 14.79075515    01
LILIUM-4                
1 71922C 26067AC  26089.50133053 -.00014632  00000+0 -74472-3 0    04
2 71922  97.4497  49.1617 0004341   5.9603 355.7042 15.16896692    16
